contact:dominique.lefevre@mio.osupytheas.fr, maurice.libes@osupytheas.fr, didier.mallarino@osupytheas.fr
Project:EMSO http://www.emso-fr.org/EMSO-France
Depth: 2436.0 m
Title:EMSO Ligure Ouest : Data MII capteur MICROCAT
DateTime_Computer,Latitude,Longitude,Temperature,Conductivity,Pressure,DateTime_Instrument
DateTime_Computer,Latitude,Longitude,degC,S m-1,dbar,DateTime_Instrument
2023-11-27T00:01:22Z,42.805,6.029,13.3043,4.60137,2470.707,2023-11-27T02:03:50Z
2023-11-27T00:04:25Z,42.805,6.029,13.3042,4.60132,2470.73,2023-11-27T02:06:53Z
2023-11-27T00:07:28Z,42.805,6.029,13.3048,4.60126,2470.707,2023-11-27T02:09:56Z
2023-11-27T00:10:31Z,42.805,6.029,13.3039,4.60123,2470.73,2023-11-27T02:12:59Z
2023-11-27T00:13:34Z,42.805,6.029,13.3039,4.60120,2470.717,2023-11-27T02:16:02Z
2023-11-27T00:16:37Z,42.805,6.029,13.3049,4.60146,2470.74,2023-11-27T02:19:05Z
2023-11-27T00:19:40Z,42.805,6.029,13.3049,4.60143,2470.73,2023-11-27T02:22:09Z
2023-11-27T00:22:43Z,42.805,6.029,13.3046,4.60156,2470.693,2023-11-27T02:25:12Z
2023-11-27T00:25:47Z,42.805,6.029,13.3042,4.60137,2470.717,2023-11-27T02:28:15Z
2023-11-27T00:28:50Z,42.805,6.029,13.3051,4.60135,2470.717,2023-11-27T02:31:18Z
2023-11-27T00:31:53Z,42.805,6.029,13.3043,4.60137,2470.693,2023-11-27T02:34:21Z
2023-11-27T00:34:56Z,42.805,6.029,13.3039,4.60128,2470.73,2023-11-27T02:37:24Z
2023-11-27T00:37:59Z,42.805,6.029,13.3051,4.60152,2470.717,2023-11-27T02:40:27Z
2023-11-27T00:41:02Z,42.805,6.029,13.3058,4.60146,2470.693,2023-11-27T02:43:30Z
2023-11-27T00:44:05Z,42.805,6.029,13.3060,4.60150,2470.707,2023-11-27T02:46:33Z
2023-11-27T00:47:08Z,42.805,6.029,13.3051,4.60146,2470.693,2023-11-27T02:49:36Z
2023-11-27T00:50:11Z,42.805,6.029,13.3043,4.60161,2470.693,2023-11-27T02:52:39Z
2023-11-27T00:53:14Z,42.805,6.029,13.3054,4.60146,2470.717,2023-11-27T02:55:42Z
2023-11-27T00:56:17Z,42.805,6.029,13.3053,4.60151,2470.73,2023-11-27T02:58:46Z
2023-11-27T00:59:20Z,42.805,6.029,13.3056,4.60154,2470.693,2023-11-27T03:01:49Z
2023-11-27T01:02:23Z,42.805,6.029,13.3058,4.60162,2470.707,2023-11-27T03:04:52Z
2023-11-27T01:05:27Z,42.805,6.029,13.3050,4.60152,2470.707,2023-11-27T03:07:55Z
2023-11-27T01:08:30Z,42.805,6.029,13.3046,4.60155,2470.717,2023-11-27T03:10:58Z
2023-11-27T01:11:33Z,42.805,6.029,13.3052,4.60157,2470.707,2023-11-27T03:14:01Z
2023-11-27T01:14:36Z,42.805,6.029,13.3056,4.60162,2470.73,2023-11-27T03:17:04Z
2023-11-27T01:17:39Z,42.805,6.029,13.3056,4.60163,2470.717,2023-11-27T03:20:07Z
2023-11-27T01:20:42Z,42.805,6.029,13.3065,4.60148,2470.717,2023-11-27T03:23:10Z
2023-11-27T01:23:45Z,42.805,6.029,13.3077,4.60151,2470.717,2023-11-27T03:26:13Z
2023-11-27T01:26:48Z,42.805,6.029,13.3045,4.60166,2470.693,2023-11-27T03:29:16Z
2023-11-27T01:29:51Z,42.805,6.029,13.3058,4.60153,2470.693,2023-11-27T03:32:19Z
2023-11-27T01:32:54Z,42.805,6.029,13.3067,4.60156,2470.73,2023-11-27T03:35:22Z
2023-11-27T01:35:57Z,42.805,6.029,13.3060,4.60167,2470.73,2023-11-27T03:38:26Z
2023-11-27T01:39:00Z,42.805,6.029,13.3059,4.60168,2470.693,2023-11-27T03:41:29Z
2023-11-27T01:42:04Z,42.805,6.029,13.3073,4.60165,2470.717,2023-11-27T03:44:32Z
2023-11-27T01:45:07Z,42.805,6.029,13.3058,4.60146,2470.717,2023-11-27T03:47:35Z
2023-11-27T01:48:10Z,42.805,6.029,13.3071,4.60181,2470.74,2023-11-27T03:50:38Z
2023-11-27T01:51:13Z,42.805,6.029,13.3076,4.60150,2470.717,2023-11-27T03:53:41Z
2023-11-27T01:54:16Z,42.805,6.029,13.3053,4.60170,2470.67,2023-11-27T03:56:44Z
2023-11-27T01:57:19Z,42.805,6.029,13.3063,4.60173,2470.74,2023-11-27T03:59:47Z
2023-11-27T02:00:22Z,42.805,6.029,13.3036,4.60151,2470.717,2023-11-27T04:02:50Z
2023-11-27T02:03:25Z,42.805,6.029,13.3067,4.60183,2470.679,2023-11-27T04:05:53Z
2023-11-27T02:06:28Z,42.805,6.029,13.3084,4.60160,2470.73,2023-11-27T04:08:56Z
2023-11-27T02:09:31Z,42.805,6.029,13.3061,4.60167,2470.754,2023-11-27T04:11:59Z
2023-11-27T02:12:34Z,42.805,6.029,13.3065,4.60178,2470.717,2023-11-27T04:15:03Z
2023-11-27T02:15:37Z,42.805,6.029,13.3081,4.60164,2470.717,2023-11-27T04:18:06Z
2023-11-27T02:18:40Z,42.805,6.029,13.3084,4.60176,2470.763,2023-11-27T04:21:09Z
2023-11-27T02:21:44Z,42.805,6.029,13.3091,4.60192,2470.74,2023-11-27T04:24:12Z
2023-11-27T02:24:47Z,42.805,6.029,13.3063,4.60196,2470.73,2023-11-27T04:27:15Z
2023-11-27T02:27:50Z,42.805,6.029,13.3067,4.60160,2470.763,2023-11-27T04:30:18Z
2023-11-27T02:30:53Z,42.805,6.029,13.3069,4.60198,2470.73,2023-11-27T04:33:21Z
2023-11-27T02:33:56Z,42.805,6.029,13.3081,4.60200,2470.754,2023-11-27T04:36:24Z
2023-11-27T02:36:59Z,42.805,6.029,13.3082,4.60197,2470.717,2023-11-27T04:39:27Z
2023-11-27T02:40:02Z,42.805,6.029,13.3084,4.60186,2470.74,2023-11-27T04:42:30Z
2023-11-27T02:43:05Z,42.805,6.029,13.3077,4.60179,2470.787,2023-11-27T04:45:33Z
2023-11-27T02:46:08Z,42.805,6.029,13.3106,4.60210,2470.777,2023-11-27T04:48:36Z
2023-11-27T02:49:11Z,42.805,6.029,13.3102,4.60200,2470.754,2023-11-27T04:51:40Z
2023-11-27T02:52:14Z,42.805,6.029,13.3098,4.60203,2470.763,2023-11-27T04:54:43Z
2023-11-27T02:55:18Z,42.805,6.029,13.3062,4.60131,2470.763,2023-11-27T04:57:46Z
2023-11-27T02:58:21Z,42.805,6.029,13.3062,4.60119,2470.754,2023-11-27T05:00:49Z
2023-11-27T03:01:24Z,42.805,6.029,13.3053,4.60139,2470.763,2023-11-27T05:03:52Z
2023-11-27T03:04:27Z,42.805,6.029,13.3081,4.60173,2470.763,2023-11-27T05:06:55Z
2023-11-27T03:07:30Z,42.805,6.029,13.3097,4.60162,2470.777,2023-11-27T05:09:58Z
2023-11-27T03:10:33Z,42.805,6.029,13.3091,4.60160,2470.763,2023-11-27T05:13:01Z
2023-11-27T03:13:36Z,42.805,6.029,13.3087,4.60144,2470.763,2023-11-27T05:16:04Z
2023-11-27T03:16:39Z,42.805,6.029,13.3086,4.60181,2470.787,2023-11-27T05:19:07Z
2023-11-27T03:19:42Z,42.805,6.029,13.3070,4.60161,2470.777,2023-11-27T05:22:10Z
2023-11-27T03:22:45Z,42.805,6.029,13.3082,4.60123,2470.787,2023-11-27T05:25:13Z
2023-11-27T03:25:48Z,42.805,6.029,13.3055,4.60120,2470.824,2023-11-27T05:28:16Z
2023-11-27T03:28:51Z,42.805,6.029,13.3061,4.60133,2470.8,2023-11-27T05:31:20Z
2023-11-27T03:31:54Z,42.805,6.029,13.3068,4.60131,2470.824,2023-11-27T05:34:23Z
2023-11-27T03:34:58Z,42.805,6.029,13.3056,4.60140,2470.81,2023-11-27T05:37:26Z
2023-11-27T03:38:01Z,42.805,6.029,13.3087,4.60128,2470.787,2023-11-27T05:40:29Z
2023-11-27T03:41:04Z,42.805,6.029,13.3075,4.60130,2470.8,2023-11-27T05:43:32Z
2023-11-27T03:44:07Z,42.805,6.029,13.3072,4.60142,2470.81,2023-11-27T05:46:35Z
2023-11-27T03:47:10Z,42.805,6.029,13.3062,4.60147,2470.787,2023-11-27T05:49:38Z
2023-11-27T03:50:13Z,42.805,6.029,13.3069,4.60132,2470.81,2023-11-27T05:52:41Z
2023-11-27T03:53:16Z,42.805,6.029,13.3065,4.60149,2470.824,2023-11-27T05:55:44Z
2023-11-27T03:56:19Z,42.805,6.029,13.3071,4.60156,2470.833,2023-11-27T05:58:47Z
2023-11-27T03:59:22Z,42.805,6.029,13.3067,4.60126,2470.81,2023-11-27T06:01:50Z
2023-11-27T04:02:25Z,42.805,6.029,13.3089,4.60132,2470.833,2023-11-27T06:04:54Z
2023-11-27T04:05:28Z,42.805,6.029,13.3061,4.60156,2470.857,2023-11-27T06:07:57Z
2023-11-27T04:08:31Z,42.805,6.029,13.3054,4.60143,2470.833,2023-11-27T06:11:00Z
2023-11-27T04:11:35Z,42.805,6.029,13.3059,4.60123,2470.833,2023-11-27T06:14:03Z
2023-11-27T04:14:38Z,42.805,6.029,13.3057,4.60141,2470.847,2023-11-27T06:17:06Z
2023-11-27T04:17:41Z,42.805,6.029,13.3074,4.60148,2470.857,2023-11-27T06:20:09Z
2023-11-27T04:20:44Z,42.805,6.029,13.3067,4.60131,2470.857,2023-11-27T06:23:12Z
2023-11-27T04:23:47Z,42.805,6.029,13.3096,4.60137,2470.847,2023-11-27T06:26:15Z
2023-11-27T04:26:50Z,42.805,6.029,13.3070,4.60138,2470.857,2023-11-27T06:29:18Z
2023-11-27T04:29:53Z,42.805,6.029,13.3063,4.60140,2470.847,2023-11-27T06:32:21Z
2023-11-27T04:32:56Z,42.805,6.029,13.3096,4.60135,2470.871,2023-11-27T06:35:24Z
2023-11-27T04:35:59Z,42.805,6.029,13.3092,4.60152,2470.88,2023-11-27T06:38:27Z
2023-11-27T04:39:02Z,42.805,6.029,13.3086,4.60135,2470.894,2023-11-27T06:41:30Z
2023-11-27T04:42:05Z,42.805,6.029,13.3096,4.60150,2470.88,2023-11-27T06:44:34Z
2023-11-27T04:45:08Z,42.805,6.029,13.3095,4.60141,2470.857,2023-11-27T06:47:37Z
2023-11-27T04:48:11Z,42.805,6.029,13.3085,4.60159,2470.894,2023-11-27T06:50:40Z
2023-11-27T04:51:15Z,42.805,6.029,13.3084,4.60139,2470.871,2023-11-27T06:53:43Z
2023-11-27T04:54:18Z,42.805,6.029,13.3087,4.60147,2470.894,2023-11-27T06:56:46Z
2023-11-27T04:57:21Z,42.805,6.029,13.3108,4.60131,2470.917,2023-11-27T06:59:49Z
2023-11-27T05:00:24Z,42.805,6.029,13.3112,4.60147,2470.917,2023-11-27T07:02:52Z
2023-11-27T05:03:27Z,42.805,6.029,13.3086,4.60152,2470.904,2023-11-27T07:05:55Z
2023-11-27T05:06:30Z,42.805,6.029,13.3082,4.60156,2470.94,2023-11-27T07:08:58Z
2023-11-27T05:09:33Z,42.805,6.029,13.3079,4.60147,2470.927,2023-11-27T07:12:01Z
2023-11-27T05:12:36Z,42.805,6.029,13.3108,4.60131,2470.904,2023-11-27T07:15:04Z
2023-11-27T05:15:39Z,42.805,6.029,13.3078,4.60139,2470.894,2023-11-27T07:18:07Z
2023-11-27T05:18:42Z,42.805,6.029,13.3071,4.60137,2470.904,2023-11-27T07:21:10Z
2023-11-27T05:21:45Z,42.805,6.029,13.3072,4.60143,2470.964,2023-11-27T07:24:14Z
2023-11-27T05:24:48Z,42.805,6.029,13.3076,4.60145,2470.94,2023-11-27T07:27:17Z
2023-11-27T05:27:52Z,42.805,6.029,13.3082,4.60150,2470.94,2023-11-27T07:30:20Z
2023-11-27T05:30:53Z,42.805,6.029,13.3091,4.60137,2470.88,2023-11-27T07:33:22Z
2023-11-27T05:33:56Z,42.805,6.029,13.3103,4.60157,2470.964,2023-11-27T07:36:25Z
2023-11-27T05:37:00Z,42.805,6.029,13.3128,4.60157,2470.973,2023-11-27T07:39:28Z
2023-11-27T05:40:03Z,42.805,6.029,13.3114,4.60142,2470.927,2023-11-27T07:42:31Z
2023-11-27T05:43:06Z,42.805,6.029,13.3109,4.60142,2470.964,2023-11-27T07:45:34Z
2023-11-27T05:46:09Z,42.805,6.029,13.3105,4.60156,2470.904,2023-11-27T07:48:37Z
2023-11-27T05:49:12Z,42.805,6.029,13.3090,4.60181,2470.95,2023-11-27T07:51:40Z
2023-11-27T05:52:15Z,42.805,6.029,13.3104,4.60169,2470.95,2023-11-27T07:54:43Z
2023-11-27T05:55:18Z,42.805,6.029,13.3122,4.60165,2470.927,2023-11-27T07:57:46Z
2023-11-27T05:58:21Z,42.805,6.029,13.3094,4.60208,2470.927,2023-11-27T08:00:49Z
2023-11-27T06:01:24Z,42.805,6.029,13.3033,4.60235,2470.917,2023-11-27T08:03:52Z
2023-11-27T06:04:27Z,42.805,6.029,13.3041,4.60244,2470.94,2023-11-27T08:06:55Z
2023-11-27T06:07:30Z,42.805,6.029,13.3055,4.60222,2470.917,2023-11-27T08:09:59Z
2023-11-27T06:10:33Z,42.805,6.029,13.3046,4.60195,2470.987,2023-11-27T08:13:02Z
2023-11-27T06:13:36Z,42.805,6.029,13.3036,4.60207,2470.964,2023-11-27T08:16:05Z
2023-11-27T06:16:40Z,42.805,6.029,13.3041,4.60233,2470.95,2023-11-27T08:19:08Z
2023-11-27T06:19:43Z,42.805,6.029,13.3055,4.60163,2470.973,2023-11-27T08:22:11Z
2023-11-27T06:22:46Z,42.805,6.029,13.3062,4.60167,2470.964,2023-11-27T08:25:14Z
2023-11-27T06:25:49Z,42.805,6.029,13.3065,4.60157,2470.95,2023-11-27T08:28:17Z
2023-11-27T06:28:52Z,42.805,6.029,13.3061,4.60115,2470.973,2023-11-27T08:31:20Z
2023-11-27T06:31:55Z,42.805,6.029,13.3056,4.60113,2470.95,2023-11-27T08:34:23Z
2023-11-27T06:34:58Z,42.805,6.029,13.3054,4.60116,2470.987,2023-11-27T08:37:26Z
2023-11-27T06:38:01Z,42.805,6.029,13.3048,4.60115,2470.927,2023-11-27T08:40:29Z
2023-11-27T06:41:04Z,42.805,6.029,13.3053,4.60116,2470.973,2023-11-27T08:43:32Z
2023-11-27T06:44:07Z,42.805,6.029,13.3045,4.60131,2470.94,2023-11-27T08:46:36Z
2023-11-27T06:47:10Z,42.805,6.029,13.3043,4.60140,2470.95,2023-11-27T08:49:39Z
2023-11-27T06:50:14Z,42.805,6.029,13.3063,4.60130,2470.997,2023-11-27T08:52:42Z
2023-11-27T06:53:17Z,42.805,6.029,13.3049,4.60117,2470.964,2023-11-27T08:55:45Z
2023-11-27T06:56:20Z,42.805,6.029,13.3043,4.60125,2470.987,2023-11-27T08:58:48Z
2023-11-27T06:59:23Z,42.805,6.029,13.3036,4.60122,2470.94,2023-11-27T09:01:51Z
2023-11-27T07:02:26Z,42.805,6.029,13.3037,4.60112,2470.95,2023-11-27T09:04:54Z
2023-11-27T07:05:29Z,42.805,6.029,13.3038,4.60113,2470.94,2023-11-27T09:07:57Z
2023-11-27T07:08:32Z,42.805,6.029,13.3037,4.60107,2470.95,2023-11-27T09:11:00Z
2023-11-27T07:11:35Z,42.805,6.029,13.3038,4.60107,2471.01,2023-11-27T09:14:03Z
2023-11-27T07:14:38Z,42.805,6.029,13.3034,4.60115,2470.973,2023-11-27T09:17:06Z
2023-11-27T07:17:41Z,42.805,6.029,13.3036,4.60110,2470.95,2023-11-27T09:20:09Z
2023-11-27T07:20:44Z,42.805,6.029,13.3034,4.60110,2470.973,2023-11-27T09:23:13Z
2023-11-27T07:23:47Z,42.805,6.029,13.3035,4.60108,2470.95,2023-11-27T09:26:16Z
2023-11-27T07:26:50Z,42.805,6.029,13.3028,4.60110,2470.973,2023-11-27T09:29:19Z
2023-11-27T07:29:54Z,42.805,6.029,13.3037,4.60107,2470.987,2023-11-27T09:32:22Z
2023-11-27T07:32:57Z,42.805,6.029,13.3033,4.60109,2470.95,2023-11-27T09:35:25Z
2023-11-27T07:36:00Z,42.805,6.029,13.3033,4.60110,2470.997,2023-11-27T09:38:28Z
2023-11-27T07:39:03Z,42.805,6.029,13.3033,4.60115,2470.95,2023-11-27T09:41:31Z
2023-11-27T07:42:06Z,42.805,6.029,13.3029,4.60110,2470.95,2023-11-27T09:44:34Z
2023-11-27T07:45:09Z,42.805,6.029,13.3035,4.60112,2470.973,2023-11-27T09:47:37Z
2023-11-27T07:48:12Z,42.805,6.029,13.3036,4.60110,2470.973,2023-11-27T09:50:40Z
2023-11-27T07:51:15Z,42.805,6.029,13.3031,4.60117,2470.973,2023-11-27T09:53:43Z
2023-11-27T07:54:18Z,42.805,6.029,13.3034,4.60109,2470.927,2023-11-27T09:56:47Z
2023-11-27T07:57:21Z,42.805,6.029,13.3034,4.60111,2470.95,2023-11-27T09:59:50Z
2023-11-27T08:00:25Z,42.805,6.029,13.3034,4.60109,2470.95,2023-11-27T10:02:53Z
2023-11-27T08:03:28Z,42.805,6.029,13.3034,4.60110,2470.973,2023-11-27T10:05:56Z
2023-11-27T08:06:31Z,42.805,6.029,13.3034,4.60112,2470.95,2023-11-27T10:08:59Z
2023-11-27T08:09:34Z,42.805,6.029,13.3034,4.60111,2470.964,2023-11-27T10:12:02Z
2023-11-27T08:12:37Z,42.805,6.029,13.3034,4.60110,2470.95,2023-11-27T10:15:05Z
2023-11-27T08:15:40Z,42.805,6.029,13.3038,4.60108,2470.973,2023-11-27T10:18:08Z
2023-11-27T08:18:43Z,42.805,6.029,13.3037,4.60109,2470.973,2023-11-27T10:21:11Z
2023-11-27T08:21:46Z,42.805,6.029,13.3036,4.60112,2470.927,2023-11-27T10:24:14Z
2023-11-27T08:24:49Z,42.805,6.029,13.3034,4.60113,2470.95,2023-11-27T10:27:17Z
2023-11-27T08:27:52Z,42.805,6.029,13.3032,4.60110,2470.95,2023-11-27T10:30:21Z
2023-11-27T08:30:55Z,42.805,6.029,13.3034,4.60110,2470.94,2023-11-27T10:33:24Z
2023-11-27T08:33:58Z,42.805,6.029,13.3033,4.60116,2470.95,2023-11-27T10:36:27Z
2023-11-27T08:37:02Z,42.805,6.029,13.3035,4.60113,2470.95,2023-11-27T10:39:30Z
2023-11-27T08:40:05Z,42.805,6.029,13.3036,4.60111,2470.964,2023-11-27T10:42:33Z
2023-11-27T08:43:08Z,42.805,6.029,13.3035,4.60110,2470.95,2023-11-27T10:45:36Z
2023-11-27T08:46:11Z,42.805,6.029,13.3034,4.60108,2470.94,2023-11-27T10:48:39Z
2023-11-27T08:49:14Z,42.805,6.029,13.3031,4.60115,2470.927,2023-11-27T10:51:42Z
2023-11-27T08:52:17Z,42.805,6.029,13.3030,4.60116,2470.927,2023-11-27T10:54:45Z
2023-11-27T08:55:20Z,42.805,6.029,13.3031,4.60109,2470.927,2023-11-27T10:57:48Z
2023-11-27T08:58:23Z,42.805,6.029,13.3031,4.60108,2470.927,2023-11-27T11:00:51Z
2023-11-27T09:01:26Z,42.805,6.029,13.3028,4.60110,2470.927,2023-11-27T11:03:55Z
2023-11-27T09:04:29Z,42.805,6.029,13.3034,4.60109,2470.927,2023-11-27T11:06:58Z
2023-11-27T09:07:32Z,42.805,6.029,13.3033,4.60112,2470.95,2023-11-27T11:10:01Z
2023-11-27T09:10:36Z,42.805,6.029,13.3031,4.60107,2470.95,2023-11-27T11:13:04Z
2023-11-27T09:13:39Z,42.805,6.029,13.3034,4.60107,2470.927,2023-11-27T11:16:07Z
2023-11-27T09:16:42Z,42.805,6.029,13.3034,4.60108,2470.95,2023-11-27T11:19:10Z
2023-11-27T09:19:45Z,42.805,6.029,13.3028,4.60115,2470.94,2023-11-27T11:22:13Z
2023-11-27T09:22:48Z,42.805,6.029,13.3034,4.60111,2470.964,2023-11-27T11:25:16Z
2023-11-27T09:25:51Z,42.805,6.029,13.3034,4.60110,2470.927,2023-11-27T11:28:19Z
2023-11-27T09:28:54Z,42.805,6.029,13.3033,4.60110,2470.973,2023-11-27T11:31:22Z
2023-11-27T09:31:57Z,42.805,6.029,13.3031,4.60108,2470.94,2023-11-27T11:34:25Z
2023-11-27T09:35:00Z,42.805,6.029,13.3033,4.60109,2470.95,2023-11-27T11:37:28Z
2023-11-27T09:38:03Z,42.805,6.029,13.3031,4.60107,2470.917,2023-11-27T11:40:32Z
2023-11-27T09:41:06Z,42.805,6.029,13.3032,4.60114,2470.88,2023-11-27T11:43:35Z
2023-11-27T09:44:09Z,42.805,6.029,13.3033,4.60112,2470.904,2023-11-27T11:46:38Z
2023-11-27T09:47:13Z,42.805,6.029,13.3033,4.60108,2470.904,2023-11-27T11:49:41Z
2023-11-27T09:50:16Z,42.805,6.029,13.3034,4.60110,2470.927,2023-11-27T11:52:44Z
2023-11-27T09:53:19Z,42.805,6.029,13.3033,4.60109,2470.917,2023-11-27T11:55:47Z
2023-11-27T09:56:22Z,42.805,6.029,13.3035,4.60110,2470.94,2023-11-27T11:58:50Z
2023-11-27T09:59:25Z,42.805,6.029,13.3043,4.60119,2470.917,2023-11-27T12:01:53Z
2023-11-27T10:02:28Z,42.805,6.029,13.3040,4.60113,2470.927,2023-11-27T12:04:56Z
2023-11-27T10:05:31Z,42.805,6.029,13.3033,4.60113,2470.904,2023-11-27T12:07:59Z
2023-11-27T10:08:34Z,42.805,6.029,13.3055,4.60147,2470.88,2023-11-27T12:11:02Z
2023-11-27T10:11:37Z,42.805,6.029,13.3039,4.60111,2470.927,2023-11-27T12:14:06Z
2023-11-27T10:14:40Z,42.805,6.029,13.3031,4.60110,2470.88,2023-11-27T12:17:09Z
2023-11-27T10:17:43Z,42.805,6.029,13.3032,4.60108,2470.857,2023-11-27T12:20:12Z
2023-11-27T10:20:46Z,42.805,6.029,13.3033,4.60107,2470.88,2023-11-27T12:23:15Z
2023-11-27T10:23:50Z,42.805,6.029,13.3031,4.60108,2470.927,2023-11-27T12:26:18Z
2023-11-27T10:26:53Z,42.805,6.029,13.3035,4.60117,2470.857,2023-11-27T12:29:21Z
2023-11-27T10:29:56Z,42.805,6.029,13.3042,4.60113,2470.917,2023-11-27T12:32:24Z
2023-11-27T10:32:59Z,42.805,6.029,13.3039,4.60132,2470.88,2023-11-27T12:35:27Z
2023-11-27T10:36:02Z,42.805,6.029,13.3033,4.60117,2470.857,2023-11-27T12:38:30Z
2023-11-27T10:39:05Z,42.805,6.029,13.3034,4.60117,2470.88,2023-11-27T12:41:33Z
2023-11-27T10:42:08Z,42.805,6.029,13.3032,4.60111,2470.857,2023-11-27T12:44:36Z
2023-11-27T10:45:11Z,42.805,6.029,13.3034,4.60113,2470.857,2023-11-27T12:47:39Z
2023-11-27T10:48:14Z,42.805,6.029,13.3032,4.60112,2470.871,2023-11-27T12:50:43Z
2023-11-27T10:51:17Z,42.805,6.029,13.3034,4.60109,2470.857,2023-11-27T12:53:46Z
2023-11-27T10:54:20Z,42.805,6.029,13.3035,4.60113,2470.857,2023-11-27T12:56:49Z
2023-11-27T10:57:24Z,42.805,6.029,13.3034,4.60109,2470.88,2023-11-27T12:59:52Z
2023-11-27T11:00:27Z,42.805,6.029,13.3034,4.60111,2470.857,2023-11-27T13:02:55Z
2023-11-27T11:03:30Z,42.805,6.029,13.3034,4.60107,2470.833,2023-11-27T13:05:58Z
2023-11-27T11:06:33Z,42.805,6.029,13.3034,4.60107,2470.857,2023-11-27T13:09:01Z
2023-11-27T11:09:36Z,42.805,6.029,13.3031,4.60106,2470.857,2023-11-27T13:12:04Z
2023-11-27T11:12:39Z,42.805,6.029,13.3033,4.60105,2470.871,2023-11-27T13:15:07Z
2023-11-27T11:15:42Z,42.805,6.029,13.3031,4.60106,2470.857,2023-11-27T13:18:10Z
2023-11-27T11:18:45Z,42.805,6.029,13.3032,4.60107,2470.847,2023-11-27T13:21:13Z
2023-11-27T11:21:48Z,42.805,6.029,13.3035,4.60106,2470.81,2023-11-27T13:24:16Z
2023-11-27T11:24:51Z,42.805,6.029,13.3033,4.60107,2470.833,2023-11-27T13:27:20Z
2023-11-27T11:27:54Z,42.805,6.029,13.3036,4.60110,2470.81,2023-11-27T13:30:23Z
2023-11-27T11:30:57Z,42.805,6.029,13.3032,4.60109,2470.857,2023-11-27T13:33:26Z
2023-11-27T11:34:01Z,42.805,6.029,13.3029,4.60114,2470.833,2023-11-27T13:36:29Z
2023-11-27T11:37:04Z,42.805,6.029,13.3034,4.60113,2470.81,2023-11-27T13:39:32Z
2023-11-27T11:40:07Z,42.805,6.029,13.3034,4.60115,2470.824,2023-11-27T13:42:35Z
2023-11-27T11:43:10Z,42.805,6.029,13.3038,4.60114,2470.81,2023-11-27T13:45:38Z
2023-11-27T11:46:13Z,42.805,6.029,13.3072,4.60123,2470.833,2023-11-27T13:48:41Z
2023-11-27T11:49:16Z,42.805,6.029,13.3056,4.60114,2470.824,2023-11-27T13:51:44Z
2023-11-27T11:52:19Z,42.805,6.029,13.3044,4.60111,2470.824,2023-11-27T13:54:47Z
2023-11-27T11:55:22Z,42.805,6.029,13.3051,4.60127,2470.824,2023-11-27T13:57:50Z
2023-11-27T11:58:25Z,42.805,6.029,13.3048,4.60114,2470.81,2023-11-27T14:00:53Z
2023-11-27T12:01:28Z,42.805,6.029,13.3079,4.60157,2470.81,2023-11-27T14:03:57Z
2023-11-27T12:04:31Z,42.805,6.029,13.3087,4.60167,2470.81,2023-11-27T14:07:00Z
2023-11-27T12:07:34Z,42.805,6.029,13.3058,4.60114,2470.833,2023-11-27T14:10:03Z
2023-11-27T12:10:38Z,42.805,6.029,13.3046,4.60141,2470.8,2023-11-27T14:13:06Z
2023-11-27T12:13:41Z,42.805,6.029,13.3059,4.60137,2470.81,2023-11-27T14:16:09Z
2023-11-27T12:16:44Z,42.805,6.029,13.3067,4.60138,2470.81,2023-11-27T14:19:12Z
2023-11-27T12:19:47Z,42.805,6.029,13.3084,4.60132,2470.824,2023-11-27T14:22:15Z
2023-11-27T12:22:50Z,42.805,6.029,13.3077,4.60135,2470.787,2023-11-27T14:25:18Z
2023-11-27T12:25:53Z,42.805,6.029,13.3080,4.60145,2470.763,2023-11-27T14:28:21Z
2023-11-27T12:28:56Z,42.805,6.029,13.3084,4.60180,2470.787,2023-11-27T14:31:24Z
2023-11-27T12:31:59Z,42.805,6.029,13.3086,4.60146,2470.763,2023-11-27T14:34:27Z
2023-11-27T12:35:02Z,42.805,6.029,13.3066,4.60171,2470.8,2023-11-27T14:37:30Z
2023-11-27T12:38:05Z,42.805,6.029,13.3075,4.60174,2470.763,2023-11-27T14:40:34Z
2023-11-27T12:41:08Z,42.805,6.029,13.3067,4.60189,2470.8,2023-11-27T14:43:37Z
2023-11-27T12:44:11Z,42.805,6.029,13.3085,4.60185,2470.74,2023-11-27T14:46:40Z
2023-11-27T12:47:15Z,42.805,6.029,13.3062,4.60158,2470.763,2023-11-27T14:49:43Z
2023-11-27T12:50:18Z,42.805,6.029,13.3076,4.60150,2470.8,2023-11-27T14:52:46Z
2023-11-27T12:53:21Z,42.805,6.029,13.3077,4.60152,2470.763,2023-11-27T14:55:49Z
2023-11-27T12:56:24Z,42.805,6.029,13.3082,4.60167,2470.74,2023-11-27T14:58:52Z
2023-11-27T12:59:27Z,42.805,6.029,13.3073,4.60172,2470.763,2023-11-27T15:01:55Z
2023-11-27T13:02:30Z,42.805,6.029,13.3093,4.60124,2470.763,2023-11-27T15:04:58Z
2023-11-27T13:05:33Z,42.805,6.029,13.3104,4.60130,2470.787,2023-11-27T15:08:01Z
2023-11-27T13:08:36Z,42.805,6.029,13.3096,4.60147,2470.8,2023-11-27T15:11:04Z
2023-11-27T13:11:39Z,42.805,6.029,13.3093,4.60126,2470.8,2023-11-27T15:14:07Z
2023-11-27T13:14:42Z,42.805,6.029,13.3084,4.60133,2470.777,2023-11-27T15:17:11Z
2023-11-27T13:17:45Z,42.805,6.029,13.3091,4.60149,2470.74,2023-11-27T15:20:14Z
2023-11-27T13:20:49Z,42.805,6.029,13.3091,4.60122,2470.787,2023-11-27T15:23:17Z
2023-11-27T13:23:52Z,42.805,6.029,13.3096,4.60118,2470.777,2023-11-27T15:26:20Z
2023-11-27T13:26:55Z,42.805,6.029,13.3095,4.60142,2470.754,2023-11-27T15:29:23Z
2023-11-27T13:29:58Z,42.805,6.029,13.3079,4.60116,2470.754,2023-11-27T15:32:26Z
2023-11-27T13:33:00Z,42.805,6.029,13.3046,4.60132,2470.787,2023-11-27T15:35:28Z
2023-11-27T13:36:03Z,42.805,6.029,13.3051,4.60125,2470.763,2023-11-27T15:38:31Z
2023-11-27T13:39:06Z,42.805,6.029,13.3033,4.60125,2470.74,2023-11-27T15:41:34Z
2023-11-27T13:42:09Z,42.805,6.029,13.3034,4.60119,2470.787,2023-11-27T15:44:37Z
2023-11-27T13:45:12Z,42.805,6.029,13.3036,4.60110,2470.763,2023-11-27T15:47:40Z
2023-11-27T13:48:15Z,42.805,6.029,13.3039,4.60110,2470.74,2023-11-27T15:50:43Z
2023-11-27T13:51:18Z,42.805,6.029,13.3031,4.60121,2470.763,2023-11-27T15:53:46Z
2023-11-27T13:54:21Z,42.805,6.029,13.3037,4.60111,2470.754,2023-11-27T15:56:49Z
2023-11-27T13:57:24Z,42.805,6.029,13.3035,4.60117,2470.763,2023-11-27T15:59:53Z
2023-11-27T14:00:27Z,42.805,6.029,13.3030,4.60117,2470.74,2023-11-27T16:02:56Z
2023-11-27T14:03:30Z,42.805,6.029,13.3036,4.60110,2470.74,2023-11-27T16:05:59Z
2023-11-27T14:06:34Z,42.805,6.029,13.3036,4.60115,2470.763,2023-11-27T16:09:02Z
2023-11-27T14:09:37Z,42.805,6.029,13.3034,4.60111,2470.717,2023-11-27T16:12:05Z
2023-11-27T14:12:40Z,42.805,6.029,13.3035,4.60114,2470.763,2023-11-27T16:15:08Z
2023-11-27T14:15:43Z,42.805,6.029,13.3034,4.60113,2470.74,2023-11-27T16:18:11Z
2023-11-27T14:18:46Z,42.805,6.029,13.3034,4.60114,2470.763,2023-11-27T16:21:14Z
2023-11-27T14:21:49Z,42.805,6.029,13.3034,4.60116,2470.74,2023-11-27T16:24:17Z
2023-11-27T14:24:52Z,42.805,6.029,13.3031,4.60118,2470.754,2023-11-27T16:27:20Z
2023-11-27T14:27:55Z,42.805,6.029,13.3029,4.60109,2470.74,2023-11-27T16:30:23Z
2023-11-27T14:30:58Z,42.805,6.029,13.3030,4.60111,2470.74,2023-11-27T16:33:26Z
2023-11-27T14:34:01Z,42.805,6.029,13.3031,4.60109,2470.754,2023-11-27T16:36:30Z
2023-11-27T14:37:04Z,42.805,6.029,13.3029,4.60107,2470.74,2023-11-27T16:39:33Z
2023-11-27T14:40:07Z,42.805,6.029,13.3029,4.60107,2470.74,2023-11-27T16:42:36Z
2023-11-27T14:43:11Z,42.805,6.029,13.3034,4.60107,2470.787,2023-11-27T16:45:39Z
2023-11-27T14:46:14Z,42.805,6.029,13.3033,4.60106,2470.717,2023-11-27T16:48:42Z
2023-11-27T14:49:17Z,42.805,6.029,13.3031,4.60107,2470.73,2023-11-27T16:51:45Z
2023-11-27T14:52:20Z,42.805,6.029,13.3033,4.60107,2470.763,2023-11-27T16:54:48Z
2023-11-27T14:55:23Z,42.805,6.029,13.3033,4.60107,2470.777,2023-11-27T16:57:51Z
2023-11-27T14:58:26Z,42.805,6.029,13.3036,4.60114,2470.787,2023-11-27T17:00:54Z
2023-11-27T15:01:29Z,42.805,6.029,13.3032,4.60109,2470.754,2023-11-27T17:03:57Z